Time,TemperatureF,DewpointF,PressureIn,WindDirection,WindDirectionDegrees,WindSpeedMPH,WindSpeedGustMPH,Humidity,HourlyPrecipIn,Conditions,Clouds,dailyrainin,SoftwareType,DateUTC
2013-01-10 00:00:00,49.5,25.6,30.39,North,355,0.0,7.0,39,0.00,,---,0.00,VWS V14.01,2013-01-10 05:00:00,
2013-01-10 00:01:00,49.8,25.2,30.39,North,355,1.0,7.0,38,0.00,,---,0.00,VWS V14.01,2013-01-10 05:01:00,
2013-01-10 00:06:00,50.7,24.7,30.39,ENE,59,8.0,8.0,36,0.00,,---,0.00,VWS V14.01,2013-01-10 05:06:00,
2013-01-10 00:11:00,51.7,24.3,30.39,East,87,0.0,8.0,34,0.00,,---,0.00,VWS V14.01,2013-01-10 05:11:00,
2013-01-10 00:16:00,51.7,26.3,30.39,SE,128,6.0,13.0,37,0.00,,---,0.00,VWS V14.01,2013-01-10 05:16:00,
2013-01-10 00:21:00,51.4,26.0,30.39,SW,220,0.0,7.0,37,0.00,,---,0.00,VWS V14.01,2013-01-10 05:21:00,
2013-01-10 00:26:00,50.8,26.8,30.39,SW,220,0.0,4.0,39,0.00,,---,0.00,VWS V14.01,2013-01-10 05:26:00,
2013-01-10 00:31:00,50.8,24.1,30.39,NNE,30,7.0,13.0,35,0.00,,---,0.00,VWS V14.01,2013-01-10 05:31:00,
2013-01-10 00:36:00,51.4,24.0,30.40,North,355,3.0,7.0,34,0.00,,---,0.00,VWS V14.01,2013-01-10 05:36:00,
2013-01-10 00:41:00,51.7,24.3,30.40,North,5,3.0,5.0,34,0.00,,---,0.00,VWS V14.01,2013-01-10 05:41:00,
2013-01-10 00:46:00,51.7,24.3,30.40,NNE,24,5.0,8.0,34,0.00,,---,0.00,VWS V14.01,2013-01-10 05:46:00,
2013-01-10 00:51:00,51.6,24.9,30.39,South,175,3.0,3.0,35,0.00,,---,0.00,VWS V14.01,2013-01-10 05:51:00,
2013-01-10 00:56:00,51.1,25.8,30.39,South,175,3.0,4.0,37,0.00,,---,0.00,VWS V14.01,2013-01-10 05:56:00,
2013-01-10 01:01:00,50.7,25.4,30.39,SW,236,2.0,5.0,37,0.00,,---,0.00,VWS V14.01,2013-01-10 06:01:00,
2013-01-10 01:06:00,49.9,26.6,30.39,West,264,5.0,5.0,40,0.00,,---,0.00,VWS V14.01,2013-01-10 06:06:00,
2013-01-10 01:11:00,49.2,24.7,30.39,West,265,1.0,4.0,38,0.00,,---,0.00,VWS V14.01,2013-01-10 06:11:00,
2013-01-10 01:16:00,48.9,26.2,30.39,WNW,284,3.0,5.0,41,0.00,,---,0.00,VWS V14.01,2013-01-10 06:16:00,
2013-01-10 01:21:00,48.5,24.7,30.39,West,265,4.0,4.0,39,0.00,,---,0.00,VWS V14.01,2013-01-10 06:21:00,
2013-01-10 01:26:00,48.2,25.0,30.39,WSW,258,5.0,7.0,40,0.00,,---,0.00,VWS V14.01,2013-01-10 06:26:00,
2013-01-10 01:31:00,48.2,25.0,30.39,SSW,207,6.0,11.0,40,0.00,,---,0.00,VWS V14.01,2013-01-10 06:31:00,
2013-01-10 01:36:00,48.6,22.9,30.40,NNE,21,9.0,17.0,36,0.00,,---,0.00,VWS V14.01,2013-01-10 06:36:00,
2013-01-10 01:41:00,49.6,24.4,30.40,North,350,4.0,6.0,37,0.00,,---,0.00,VWS V14.01,2013-01-10 06:41:00,
2013-01-10 01:46:00,49.5,25.0,30.40,WNW,288,1.0,10.0,38,0.00,,---,0.00,VWS V14.01,2013-01-10 06:46:00,
2013-01-10 01:51:00,49.2,24.1,30.40,WSW,258,8.0,12.0,37,0.00,,---,0.00,VWS V14.01,2013-01-10 06:51:00,
2013-01-10 01:56:00,49.2,24.7,30.40,NNW,346,7.0,10.0,38,0.00,,---,0.00,VWS V14.01,2013-01-10 06:56:00,
2013-01-10 02:01:00,49.0,24.5,30.40,WSW,252,13.0,13.0,38,0.00,,---,0.00,VWS V14.01,2013-01-10 07:01:00,
2013-01-10 02:06:00,49.3,24.8,30.41,West,273,5.0,13.0,38,0.00,,---,0.00,VWS V14.01,2013-01-10 07:06:00,
2013-01-10 02:11:00,49.5,25.0,30.41,NNW,343,14.0,14.0,38,0.00,,---,0.00,VWS V14.01,2013-01-10 07:11:00,
2013-01-10 02:16:00,49.8,25.2,30.41,West,277,12.0,15.0,38,0.00,,---,0.00,VWS V14.01,2013-01-10 07:16:00,
2013-01-10 02:21:00,49.9,25.3,30.41,NNE,32,6.0,14.0,38,0.00,,---,0.00,VWS V14.01,2013-01-10 07:21:00,
2013-01-10 02:26:00,49.9,25.3,30.41,North,5,1.0,6.0,38,0.00,,---,0.00,VWS V14.01,2013-01-10 07:26:00,
2013-01-10 02:31:00,49.9,24.7,30.41,NNW,336,4.0,10.0,37,0.00,,---,0.00,VWS V14.01,2013-01-10 07:31:00,
2013-01-10 02:36:00,49.9,24.7,30.41,West,273,2.0,6.0,37,0.00,,---,0.00,VWS V14.01,2013-01-10 07:36:00,
2013-01-10 02:41:00,49.8,25.2,30.41,West,275,0.0,4.0,38,0.00,,---,0.00,VWS V14.01,2013-01-10 07:41:00,
2013-01-10 02:46:00,49.6,25.0,30.41,West,275,0.0,3.0,38,0.00,,---,0.00,VWS V14.01,2013-01-10 07:46:00,
2013-01-10 02:51:00,49.2,25.3,30.42,NE,36,3.0,3.0,39,0.00,,---,0.00,VWS V14.01,2013-01-10 07:51:00,
2013-01-10 02:56:00,48.7,25.5,30.42,ENE,76,0.0,3.0,40,0.00,,---,0.00,VWS V14.01,2013-01-10 07:56:00,
2013-01-10 03:01:00,48.0,24.9,30.42,ENE,76,0.0,4.0,40,0.00,,---,0.00,VWS V14.01,2013-01-10 08:01:00,
2013-01-10 03:06:00,47.6,25.7,30.42,NNW,348,4.0,4.0,42,0.00,,---,0.00,VWS V14.01,2013-01-10 08:06:00,
2013-01-10 03:11:00,46.8,26.0,30.42,NW,319,2.0,3.0,44,0.00,,---,0.00,VWS V14.01,2013-01-10 08:11:00,
2013-01-10 03:16:00,46.1,26.0,30.42,NNW,337,5.0,6.0,45,0.00,,---,0.00,VWS V14.01,2013-01-10 08:16:00,
2013-01-10 03:21:00,45.6,25.0,30.42,SE,142,6.0,6.0,44,0.00,,---,0.00,VWS V14.01,2013-01-10 08:21:00,
2013-01-10 03:26:00,45.6,26.0,30.42,North,5,6.0,7.0,46,0.00,,---,0.00,VWS V14.01,2013-01-10 08:26:00,
2013-01-10 03:31:00,45.9,25.2,30.42,NE,35,1.0,4.0,44,0.00,,---,0.00,VWS V14.01,2013-01-10 08:31:00,
2013-01-10 03:36:00,45.6,26.0,30.42,NW,318,1.0,4.0,46,0.00,,---,0.00,VWS V14.01,2013-01-10 08:36:00,
2013-01-10 03:41:00,45.2,26.2,30.42,NW,318,4.0,5.0,47,0.00,,---,0.00,VWS V14.01,2013-01-10 08:41:00,
2013-01-10 03:46:00,44.5,27.0,30.42,NW,317,3.0,5.0,50,0.00,,---,0.00,VWS V14.01,2013-01-10 08:46:00,
2013-01-10 03:51:00,44.0,26.6,30.43,NW,323,4.0,5.0,50,0.00,,---,0.00,VWS V14.01,2013-01-10 08:51:00,
2013-01-10 03:56:00,43.4,26.5,30.43,NW,323,6.0,6.0,51,0.00,,---,0.00,VWS V14.01,2013-01-10 08:56:00,
2013-01-10 04:01:00,43.2,25.4,30.43,NNE,21,2.0,4.0,49,0.00,,---,0.00,VWS V14.01,2013-01-10 09:01:00,
2013-01-10 04:06:00,43.6,26.2,30.43,NW,319,4.0,6.0,50,0.00,,---,0.00,VWS V14.01,2013-01-10 09:06:00,
2013-01-10 04:11:00,43.7,26.3,30.43,NW,316,3.0,9.0,50,0.00,,---,0.00,VWS V14.01,2013-01-10 09:11:00,
2013-01-10 04:16:00,43.7,25.3,30.43,NNW,338,2.0,10.0,48,0.00,,---,0.00,VWS V14.01,2013-01-10 09:16:00,
2013-01-10 04:21:00,44.2,24.8,30.42,NNW,339,0.0,4.0,46,0.00,,---,0.00,VWS V14.01,2013-01-10 09:21:00,
2013-01-10 04:26:00,44.5,25.0,30.42,NNW,339,2.0,3.0,46,0.00,,---,0.00,VWS V14.01,2013-01-10 09:26:00,
2013-01-10 04:31:00,44.3,26.4,30.42,NNW,339,0.0,2.0,49,0.00,,---,0.00,VWS V14.01,2013-01-10 09:31:00,
2013-01-10 04:36:00,43.7,25.8,30.42,NNW,339,1.0,2.0,49,0.00,,---,0.00,VWS V14.01,2013-01-10 09:36:00,
2013-01-10 04:41:00,43.2,24.9,30.42,NNW,339,0.0,3.0,48,0.00,,---,0.00,VWS V14.01,2013-01-10 09:41:00,
2013-01-10 04:46:00,43.0,25.6,30.42,NNW,339,4.0,4.0,50,0.00,,---,0.00,VWS V14.01,2013-01-10 09:46:00,
2013-01-10 04:51:00,42.6,26.2,30.43,NNW,339,4.0,5.0,52,0.00,,---,0.00,VWS V14.01,2013-01-10 09:51:00,
2013-01-10 04:56:00,41.9,25.6,30.43,NNW,338,4.0,6.0,52,0.00,,---,0.00,VWS V14.01,2013-01-10 09:56:00,
2013-01-10 05:01:00,41.6,25.3,30.43,NNW,338,1.0,4.0,52,0.00,,---,0.00,VWS V14.01,2013-01-10 10:01:00,
2013-01-10 05:06:00,41.3,25.9,30.43,NNW,338,0.0,3.0,54,0.00,,---,0.00,VWS V14.01,2013-01-10 10:06:00,
2013-01-10 05:11:00,41.0,25.6,30.43,NNW,340,0.0,2.0,54,0.00,,---,0.00,VWS V14.01,2013-01-10 10:11:00,
2013-01-10 05:16:00,40.6,25.3,30.43,NNW,340,3.0,4.0,54,0.00,,---,0.00,VWS V14.01,2013-01-10 10:16:00,
2013-01-10 05:21:00,40.3,25.4,30.45,NNW,340,4.0,5.0,55,0.00,,---,0.00,VWS V14.01,2013-01-10 10:21:00,
2013-01-10 05:26:00,40.0,25.1,30.45,NNW,340,4.0,5.0,55,0.00,,---,0.00,VWS V14.01,2013-01-10 10:26:00,
2013-01-10 05:31:00,40.0,24.7,30.45,NNW,340,3.0,5.0,54,0.00,,---,0.00,VWS V14.01,2013-01-10 10:31:00,
2013-01-10 05:36:00,40.7,24.9,30.45,NNW,340,5.0,6.0,53,0.00,,---,0.00,VWS V14.01,2013-01-10 10:36:00,
2013-01-10 05:41:00,40.6,25.3,30.45,NW,326,4.0,6.0,54,0.00,,---,0.00,VWS V14.01,2013-01-10 10:41:00,
2013-01-10 05:46:00,40.4,24.6,30.45,NW,323,4.0,5.0,53,0.00,,---,0.00,VWS V14.01,2013-01-10 10:46:00,
2013-01-10 05:51:00,40.3,24.5,30.45,NW,323,5.0,5.0,53,0.00,,---,0.00,VWS V14.01,2013-01-10 10:51:00,
2013-01-10 05:56:00,40.3,25.0,30.45,NW,323,3.0,4.0,54,0.00,,---,0.00,VWS V14.01,2013-01-10 10:56:00,
2013-01-10 06:01:00,40.2,24.9,30.45,NW,323,0.0,3.0,54,0.00,,---,0.00,VWS V14.01,2013-01-10 11:01:00,
2013-01-10 06:06:00,40.0,25.1,30.47,NW,323,0.0,1.0,55,0.00,,---,0.00,VWS V14.01,2013-01-10 11:06:00,
2013-01-10 06:11:00,39.7,25.7,30.47,NW,323,1.0,3.0,57,0.00,,---,0.00,VWS V14.01,2013-01-10 11:11:00,
2013-01-10 06:16:00,39.3,25.8,30.47,NW,323,0.0,0.0,58,0.00,,---,0.00,VWS V14.01,2013-01-10 11:16:00,
2013-01-10 06:21:00,38.9,25.8,30.48,NW,323,0.0,2.0,59,0.00,,---,0.00,VWS V14.01,2013-01-10 11:21:00,
2013-01-10 06:26:00,38.6,25.5,30.48,NW,323,0.0,0.0,59,0.00,,---,0.00,VWS V14.01,2013-01-10 11:26:00,
2013-01-10 06:31:00,38.3,25.6,30.48,NW,323,0.0,1.0,60,0.00,,---,0.00,VWS V14.01,2013-01-10 11:31:00,
2013-01-10 06:36:00,38.2,25.5,30.49,NW,323,0.0,1.0,60,0.00,,---,0.00,VWS V14.01,2013-01-10 11:36:00,
2013-01-10 06:41:00,37.9,25.7,30.49,North,360,0.0,2.0,61,0.00,,---,0.00,VWS V14.01,2013-01-10 11:41:00,
2013-01-10 06:46:00,37.9,25.7,30.49,North,360,0.0,4.0,61,0.00,,---,0.00,VWS V14.01,2013-01-10 11:46:00,
2013-01-10 06:51:00,37.6,25.4,30.50,North,360,2.0,3.0,61,0.00,,---,0.00,VWS V14.01,2013-01-10 11:51:00,
2013-01-10 06:56:00,37.3,24.7,30.50,North,360,0.0,2.0,60,0.00,,---,0.00,VWS V14.01,2013-01-10 11:56:00,
2013-01-10 07:01:00,37.4,24.8,30.50,North,360,0.0,3.0,60,0.00,,---,0.00,VWS V14.01,2013-01-10 12:01:00,
2013-01-10 07:06:00,37.7,25.1,30.50,North,360,1.0,4.0,60,0.00,,---,0.00,VWS V14.01,2013-01-10 12:06:00,
2013-01-10 07:11:00,37.9,26.1,30.50,North,360,1.0,3.0,62,0.00,,---,0.00,VWS V14.01,2013-01-10 12:11:00,
2013-01-10 07:16:00,37.6,25.4,30.50,North,360,3.0,4.0,61,0.00,,---,0.00,VWS V14.01,2013-01-10 12:16:00,
2013-01-10 07:21:00,37.7,25.1,30.50,North,360,2.0,4.0,60,0.00,,---,0.00,VWS V14.01,2013-01-10 12:21:00,
2013-01-10 07:26:00,37.9,24.9,30.50,North,360,0.0,0.0,59,0.00,,---,0.00,VWS V14.01,2013-01-10 12:26:00,
2013-01-10 07:31:00,37.9,25.3,30.50,North,360,3.0,4.0,60,0.00,,---,0.00,VWS V14.01,2013-01-10 12:31:00,
2013-01-10 07:36:00,37.6,25.8,30.52,North,355,3.0,4.0,62,0.00,,---,0.00,VWS V14.01,2013-01-10 12:36:00,
2013-01-10 07:41:00,37.4,24.4,30.52,North,355,1.0,5.0,59,0.00,,---,0.00,VWS V14.01,2013-01-10 12:41:00,
2013-01-10 07:46:00,37.6,25.4,30.52,North,355,1.0,4.0,61,0.00,,---,0.00,VWS V14.01,2013-01-10 12:46:00,
2013-01-10 07:51:00,37.4,25.2,30.53,North,355,1.0,2.0,61,0.00,,---,0.00,VWS V14.01,2013-01-10 12:51:00,
2013-01-10 07:55:00,37.3,24.7,30.53,North,355,1.0,2.0,60,0.00,,---,0.00,VWS V14.01,2013-01-10 12:55:00,
2013-01-10 08:00:00,37.3,24.7,30.53,North,355,0.0,1.0,60,0.00,,---,0.00,VWS V14.01,2013-01-10 13:00:00,
2013-01-10 08:05:00,37.3,25.9,30.54,North,355,0.0,2.0,63,0.00,,---,0.00,VWS V14.01,2013-01-10 13:05:00,
2013-01-10 08:10:00,37.3,26.3,30.54,North,355,0.0,2.0,64,0.00,,---,0.00,VWS V14.01,2013-01-10 13:10:00,
2013-01-10 08:15:00,37.3,26.3,30.54,North,355,0.0,0.0,64,0.00,,---,0.00,VWS V14.01,2013-01-10 13:15:00,
2013-01-10 08:20:00,37.4,26.7,30.55,North,355,0.0,1.0,65,0.00,,---,0.00,VWS V14.01,2013-01-10 13:20:00,
2013-01-10 08:25:00,37.4,27.1,30.55,NNW,336,0.0,0.0,66,0.00,,---,0.00,VWS V14.01,2013-01-10 13:25:00,
2013-01-10 08:30:00,37.6,26.9,30.55,NNW,336,0.0,1.0,65,0.00,,---,0.00,VWS V14.01,2013-01-10 13:30:00,
2013-01-10 08:35:00,37.7,27.4,30.57,WNW,302,0.0,0.0,66,0.00,,---,0.00,VWS V14.01,2013-01-10 13:35:00,
2013-01-10 08:40:00,38.2,27.5,30.57,WNW,302,0.0,1.0,65,0.00,,---,0.00,VWS V14.01,2013-01-10 13:40:00,
2013-01-10 08:45:00,38.7,26.0,30.57,NNE,33,0.0,3.0,60,0.00,,---,0.00,VWS V14.01,2013-01-10 13:45:00,
2013-01-10 08:50:00,39.2,29.2,30.57,NNE,33,0.0,0.0,67,0.00,,---,0.00,VWS V14.01,2013-01-10 13:50:00,
2013-01-10 08:55:00,39.3,28.5,30.57,NNE,33,1.0,2.0,65,0.00,,---,0.00,VWS V14.01,2013-01-10 13:55:00,
2013-01-10 09:00:00,39.7,27.0,30.57,NE,34,0.0,3.0,60,0.00,,---,0.00,VWS V14.01,2013-01-10 14:00:00,
2013-01-10 09:05:00,41.2,28.0,30.56,NE,34,0.0,4.0,59,0.00,,---,0.00,VWS V14.01,2013-01-10 14:05:00,
2013-01-10 09:10:00,42.7,25.9,30.56,NE,38,1.0,6.0,51,0.00,,---,0.00,VWS V14.01,2013-01-10 14:10:00,
2013-01-10 09:15:00,45.1,28.5,30.56,NE,46,4.0,4.0,52,0.00,,---,0.00,VWS V14.01,2013-01-10 14:15:00,
2013-01-10 09:20:00,46.7,27.0,30.56,ENE,62,0.0,3.0,46,0.00,,---,0.00,VWS V14.01,2013-01-10 14:20:00,
2013-01-10 09:25:00,47.6,26.8,30.56,NE,55,1.0,3.0,44,0.00,,---,0.00,VWS V14.01,2013-01-10 14:25:00,
2013-01-10 09:30:00,48.0,26.6,30.56,NE,56,1.0,3.0,43,0.00,,---,0.00,VWS V14.01,2013-01-10 14:30:00,
2013-01-10 09:35:00,48.5,25.9,30.57,East,90,3.0,6.0,41,0.00,,---,0.00,VWS V14.01,2013-01-10 14:35:00,
2013-01-10 09:40:00,48.7,26.1,30.57,ENE,71,4.0,6.0,41,0.00,,---,0.00,VWS V14.01,2013-01-10 14:40:00,
2013-01-10 09:45:00,49.0,26.3,30.57,East,91,3.0,5.0,41,0.00,,---,0.00,VWS V14.01,2013-01-10 14:45:00,
2013-01-10 09:50:00,49.0,25.8,30.57,East,82,0.0,3.0,40,0.00,,---,0.00,VWS V14.01,2013-01-10 14:50:00,
2013-01-10 09:55:00,49.0,26.3,30.57,East,82,0.0,1.0,41,0.00,,---,0.00,VWS V14.01,2013-01-10 14:55:00,
2013-01-10 10:00:00,49.3,26.0,30.57,SE,146,3.0,4.0,40,0.00,,---,0.00,VWS V14.01,2013-01-10 15:00:00,
2013-01-10 10:05:00,49.5,26.2,30.57,SE,146,0.0,3.0,40,0.00,,---,0.00,VWS V14.01,2013-01-10 15:05:00,
2013-01-10 10:10:00,49.3,27.2,30.57,SSE,162,1.0,3.0,42,0.00,,---,0.00,VWS V14.01,2013-01-10 15:10:00,
2013-01-10 10:15:00,49.2,27.1,30.57,SSE,162,1.0,2.0,42,0.00,,---,0.00,VWS V14.01,2013-01-10 15:15:00,
2013-01-10 10:20:00,48.9,27.4,30.57,SSE,162,0.0,2.0,43,0.00,,---,0.00,VWS V14.01,2013-01-10 15:20:00,
2013-01-10 10:25:00,48.9,28.0,30.57,SSE,162,1.0,2.0,44,0.00,,---,0.00,VWS V14.01,2013-01-10 15:25:00,
2013-01-10 10:30:00,48.7,27.2,30.57,SSE,161,1.0,3.0,43,0.00,,---,0.00,VWS V14.01,2013-01-10 15:30:00,
2013-01-10 10:35:00,48.6,28.2,30.56,SSE,161,1.0,3.0,45,0.00,,---,0.00,VWS V14.01,2013-01-10 15:35:00,
2013-01-10 10:40:00,48.6,28.2,30.56,SSE,161,1.0,2.0,45,0.00,,---,0.00,VWS V14.01,2013-01-10 15:40:00,
2013-01-10 10:45:00,48.5,28.1,30.56,SSE,161,2.0,2.0,45,0.00,,---,0.00,VWS V14.01,2013-01-10 15:45:00,
2013-01-10 10:50:00,48.6,28.2,30.56,SSE,161,0.0,2.0,45,0.00,,---,0.00,VWS V14.01,2013-01-10 15:50:00,
2013-01-10 10:55:00,48.7,28.3,30.56,SSE,162,0.0,0.0,45,0.00,,---,0.00,VWS V14.01,2013-01-10 15:55:00,
2013-01-10 11:00:00,49.6,28.6,30.56,SSE,161,1.0,1.0,44,0.00,,---,0.00,VWS V14.01,2013-01-10 16:00:00,
2013-01-10 11:05:00,50.8,28.5,30.54,SSE,162,1.0,2.0,42,0.00,,---,0.00,VWS V14.01,2013-01-10 16:05:00,
2013-01-10 11:10:00,51.6,30.4,30.54,SSE,162,2.0,5.0,44,0.00,,---,0.00,VWS V14.01,2013-01-10 16:10:00,
2013-01-10 11:15:00,51.6,28.1,30.54,South,173,3.0,4.0,40,0.00,,---,0.00,VWS V14.01,2013-01-10 16:15:00,
2013-01-10 11:20:00,52.2,29.2,30.54,South,170,6.0,6.0,41,0.00,,---,0.00,VWS V14.01,2013-01-10 16:20:00,
2013-01-10 11:25:00,52.7,28.5,30.54,SSE,149,5.0,6.0,39,0.00,,---,0.00,VWS V14.01,2013-01-10 16:25:00,
2013-01-10 11:30:00,53.0,29.3,30.54,South,177,5.0,7.0,40,0.00,,---,0.00,VWS V14.01,2013-01-10 16:30:00,
2013-01-10 11:35:00,53.3,30.2,30.53,South,176,5.0,6.0,41,0.00,,---,0.00,VWS V14.01,2013-01-10 16:35:00,
2013-01-10 11:40:00,53.6,29.3,30.53,SSW,196,5.0,8.0,39,0.00,,---,0.00,VWS V14.01,2013-01-10 16:40:00,
2013-01-10 11:45:00,53.6,29.9,30.53,SSW,196,1.0,4.0,40,0.00,,---,0.00,VWS V14.01,2013-01-10 16:45:00,
2013-01-10 11:50:00,53.9,28.9,30.52,South,180,3.0,6.0,38,0.00,,---,0.00,VWS V14.01,2013-01-10 16:50:00,
2013-01-10 11:55:00,54.1,29.1,30.52,SSE,158,5.0,7.0,38,0.00,,---,0.00,VWS V14.01,2013-01-10 16:55:00,
2013-01-10 12:00:00,53.9,28.9,30.52,SSE,164,5.0,6.0,38,0.00,,---,0.00,VWS V14.01,2013-01-10 17:00:00,
2013-01-10 12:05:00,53.8,28.2,30.52,SSE,167,3.0,7.0,37,0.00,,---,0.00,VWS V14.01,2013-01-10 17:05:00,
2013-01-10 12:10:00,53.8,28.2,30.52,South,185,6.0,7.0,37,0.00,,---,0.00,VWS V14.01,2013-01-10 17:10:00,
2013-01-10 12:15:00,54.1,28.4,30.52,SW,217,5.0,6.0,37,0.00,,---,0.00,VWS V14.01,2013-01-10 17:15:00,
2013-01-10 12:20:00,54.4,28.7,30.51,South,185,3.0,7.0,37,0.00,,---,0.00,VWS V14.01,2013-01-10 17:20:00,
2013-01-10 12:25:00,54.4,28.7,30.51,South,184,1.0,4.0,37,0.00,,---,0.00,VWS V14.01,2013-01-10 17:25:00,
2013-01-10 12:30:00,55.0,29.2,30.51,South,190,6.0,7.0,37,0.00,,---,0.00,VWS V14.01,2013-01-10 17:30:00,
2013-01-10 12:35:00,55.1,28.0,30.51,South,189,0.0,3.0,35,0.00,,---,0.00,VWS V14.01,2013-01-10 17:35:00,
2013-01-10 12:40:00,55.3,29.5,30.51,SSE,159,5.0,6.0,37,0.00,,---,0.00,VWS V14.01,2013-01-10 17:40:00,
2013-01-10 12:45:00,55.0,28.6,30.51,South,173,2.0,6.0,36,0.00,,---,0.00,VWS V14.01,2013-01-10 17:45:00,
2013-01-10 12:50:00,54.8,29.0,30.51,South,175,4.0,4.0,37,0.00,,---,0.00,VWS V14.01,2013-01-10 17:50:00,
2013-01-10 12:55:00,54.8,29.0,30.51,South,187,6.0,6.0,37,0.00,,---,0.00,VWS V14.01,2013-01-10 17:55:00,
2013-01-10 13:00:00,54.7,29.0,30.51,SSE,150,6.0,6.0,37,0.00,,---,0.00,VWS V14.01,2013-01-10 18:00:00,
2013-01-10 13:05:00,54.5,29.4,30.51,SSE,150,3.0,7.0,38,0.00,,---,0.00,VWS V14.01,2013-01-10 18:05:00,
2013-01-10 13:10:00,54.4,29.3,30.51,South,169,3.0,6.0,38,0.00,,---,0.00,VWS V14.01,2013-01-10 18:10:00,
2013-01-10 13:15:00,54.5,28.8,30.51,SSE,166,2.0,5.0,37,0.00,,---,0.00,VWS V14.01,2013-01-10 18:15:00,
2013-01-10 13:20:00,54.8,28.4,30.51,SSE,150,1.0,4.0,36,0.00,,---,0.00,VWS V14.01,2013-01-10 18:20:00,
2013-01-10 13:25:00,55.0,28.6,30.51,SE,127,4.0,4.0,36,0.00,,---,0.00,VWS V14.01,2013-01-10 18:25:00,
2013-01-10 13:30:00,55.0,29.2,30.51,SE,130,3.0,4.0,37,0.00,,---,0.00,VWS V14.01,2013-01-10 18:30:00,
2013-01-10 13:35:00,54.8,28.4,30.49,East,97,2.0,3.0,36,0.00,,---,0.00,VWS V14.01,2013-01-10 18:35:00,
2013-01-10 13:40:00,54.8,28.4,30.49,ESE,108,1.0,4.0,36,0.00,,---,0.00,VWS V14.01,2013-01-10 18:40:00,
2013-01-10 13:45:00,55.0,29.9,30.49,SSE,159,4.0,4.0,38,0.00,,---,0.00,VWS V14.01,2013-01-10 18:45:00,
2013-01-10 13:50:00,55.3,29.5,30.49,SSE,164,4.0,5.0,37,0.00,,---,0.00,VWS V14.01,2013-01-10 18:50:00,
2013-01-10 13:55:00,55.3,28.8,30.49,SSE,153,1.0,3.0,36,0.00,,---,0.00,VWS V14.01,2013-01-10 18:55:00,
2013-01-10 14:00:00,55.6,29.8,30.49,SSE,153,4.0,4.0,37,0.00,,---,0.00,VWS V14.01,2013-01-10 19:00:00,
2013-01-10 14:05:00,55.7,30.5,30.49,ESE,115,4.0,5.0,38,0.00,,---,0.00,VWS V14.01,2013-01-10 19:05:00,
2013-01-10 14:10:00,56.1,28.8,30.49,SSE,149,0.0,3.0,35,0.00,,---,0.00,VWS V14.01,2013-01-10 19:10:00,
2013-01-10 14:15:00,56.4,29.8,30.49,SE,132,4.0,4.0,36,0.00,,---,0.00,VWS V14.01,2013-01-10 19:15:00,
2013-01-10 14:20:00,56.7,29.4,30.49,SE,135,1.0,4.0,35,0.00,,---,0.00,VWS V14.01,2013-01-10 19:20:00,
2013-01-10 14:25:00,57.1,29.0,30.49,ENE,63,0.0,1.0,34,0.00,,---,0.00,VWS V14.01,2013-01-10 19:25:00,
2013-01-10 14:30:00,57.1,29.0,30.49,ENE,76,0.0,2.0,34,0.00,,---,0.00,VWS V14.01,2013-01-10 19:30:00,
2013-01-10 14:35:00,56.9,30.2,30.49,SSE,155,4.0,5.0,36,0.00,,---,0.00,VWS V14.01,2013-01-10 19:35:00,
2013-01-10 14:40:00,56.6,30.0,30.49,East,85,3.0,8.0,36,0.00,,---,0.00,VWS V14.01,2013-01-10 19:40:00,
2013-01-10 14:45:00,56.1,28.8,30.49,East,97,4.0,8.0,35,0.00,,---,0.00,VWS V14.01,2013-01-10 19:45:00,
2013-01-10 14:50:00,56.1,29.5,30.48,East,88,5.0,9.0,36,0.00,,---,0.00,VWS V14.01,2013-01-10 19:50:00,
2013-01-10 14:55:00,56.0,30.1,30.48,East,83,3.0,6.0,37,0.00,,---,0.00,VWS V14.01,2013-01-10 19:55:00,
2013-01-10 15:00:00,55.6,29.8,30.48,ENE,77,5.0,6.0,37,0.00,,---,0.00,VWS V14.01,2013-01-10 20:00:00,
2013-01-10 15:05:00,55.0,29.2,30.48,ENE,73,2.0,5.0,37,0.00,,---,0.00,VWS V14.01,2013-01-10 20:05:00,
2013-01-10 15:10:00,54.8,29.7,30.48,East,100,4.0,4.0,38,0.00,,---,0.00,VWS V14.01,2013-01-10 20:10:00,
2013-01-10 15:15:00,54.5,29.4,30.48,NE,38,3.0,7.0,38,0.00,,---,0.00,VWS V14.01,2013-01-10 20:15:00,
2013-01-10 15:20:00,54.4,30.0,30.49,ENE,76,4.0,4.0,39,0.00,,---,0.00,VWS V14.01,2013-01-10 20:20:00,
2013-01-10 15:25:00,54.2,29.2,30.49,East,97,3.0,5.0,38,0.00,,---,0.00,VWS V14.01,2013-01-10 20:25:00,
2013-01-10 15:30:00,54.2,29.2,30.49,East,101,3.0,5.0,38,0.00,,---,0.00,VWS V14.01,2013-01-10 20:30:00,
2013-01-10 15:35:00,54.1,29.7,30.49,ESE,112,3.0,5.0,39,0.00,,---,0.00,VWS V14.01,2013-01-10 20:35:00,
2013-01-10 15:40:00,54.1,30.3,30.49,ESE,116,3.0,4.0,40,0.00,,---,0.00,VWS V14.01,2013-01-10 20:40:00,
2013-01-10 15:45:00,54.1,30.3,30.49,ESE,121,5.0,5.0,40,0.00,,---,0.00,VWS V14.01,2013-01-10 20:45:00,
2013-01-10 15:50:00,53.9,30.8,30.49,SE,139,4.0,5.0,41,0.00,,---,0.00,VWS V14.01,2013-01-10 20:50:00,
2013-01-10 15:55:00,53.8,30.7,30.49,SE,142,1.0,6.0,41,0.00,,---,0.00,VWS V14.01,2013-01-10 20:55:00,
2013-01-10 16:00:00,53.6,31.7,30.49,SE,142,2.0,4.0,43,0.00,,---,0.00,VWS V14.01,2013-01-10 21:00:00,
2013-01-10 16:05:00,53.3,30.2,30.49,SE,142,1.0,2.0,41,0.00,,---,0.00,VWS V14.01,2013-01-10 21:05:00,
2013-01-10 16:10:00,53.3,31.4,30.49,SE,142,0.0,2.0,43,0.00,,---,0.00,VWS V14.01,2013-01-10 21:10:00,
2013-01-10 16:15:00,53.2,30.7,30.49,SSE,150,1.0,3.0,42,0.00,,---,0.00,VWS V14.01,2013-01-10 21:15:00,
2013-01-10 16:20:00,53.0,31.1,30.49,SSE,150,1.0,3.0,43,0.00,,---,0.00,VWS V14.01,2013-01-10 21:20:00,
2013-01-10 16:25:00,52.9,31.0,30.49,SSE,150,0.0,1.0,43,0.00,,---,0.00,VWS V14.01,2013-01-10 21:25:00,
2013-01-10 16:30:00,52.9,30.5,30.49,SSE,150,0.0,0.0,42,0.00,,---,0.00,VWS V14.01,2013-01-10 21:30:00,
2013-01-10 16:35:00,52.7,30.3,30.50,SSE,150,0.0,2.0,42,0.00,,---,0.00,VWS V14.01,2013-01-10 21:35:00,
2013-01-10 16:40:00,52.6,30.2,30.50,SSE,150,0.0,0.0,42,0.00,,---,0.00,VWS V14.01,2013-01-10 21:40:00,
2013-01-10 16:45:00,52.6,31.9,30.50,SSE,150,0.0,0.0,45,0.00,,---,0.00,VWS V14.01,2013-01-10 21:45:00,
2013-01-10 16:50:00,52.3,30.5,30.50,SSE,150,0.0,0.0,43,0.00,,---,0.00,VWS V14.01,2013-01-10 21:50:00,
2013-01-10 16:55:00,52.2,30.4,30.50,SSE,150,0.0,0.0,43,0.00,,---,0.00,VWS V14.01,2013-01-10 21:55:00,
2013-01-10 17:00:00,51.9,30.1,30.50,SSE,150,0.0,1.0,43,0.00,,---,0.00,VWS V14.01,2013-01-10 22:00:00,
2013-01-10 17:05:00,51.7,29.9,30.50,SSE,150,0.0,1.0,43,0.00,,---,0.00,VWS V14.01,2013-01-10 22:05:00,
2013-01-10 17:10:00,51.6,30.4,30.50,SSE,150,0.0,2.0,44,0.00,,---,0.00,VWS V14.01,2013-01-10 22:10:00,
2013-01-10 17:15:00,51.1,30.5,30.50,SSE,150,1.0,2.0,45,0.00,,---,0.00,VWS V14.01,2013-01-10 22:15:00,
2013-01-10 17:20:00,50.8,30.2,30.50,SSE,150,3.0,4.0,45,0.00,,---,0.00,VWS V14.01,2013-01-10 22:20:00,
2013-01-10 17:25:00,50.5,30.5,30.50,SSE,150,2.0,3.0,46,0.00,,---,0.00,VWS V14.01,2013-01-10 22:25:00,
2013-01-10 17:30:00,50.1,30.7,30.50,SSE,150,2.0,3.0,47,0.00,,---,0.00,VWS V14.01,2013-01-10 22:30:00,
2013-01-10 17:35:00,49.8,30.9,30.50,SSE,150,2.0,3.0,48,0.00,,---,0.00,VWS V14.01,2013-01-10 22:35:00,
2013-01-10 17:40:00,49.5,31.1,30.50,SSE,150,3.0,3.0,49,0.00,,---,0.00,VWS V14.01,2013-01-10 22:40:00,
2013-01-10 17:45:00,49.2,30.4,30.50,SSE,150,2.0,3.0,48,0.00,,---,0.00,VWS V14.01,2013-01-10 22:45:00,
2013-01-10 17:50:00,48.9,30.6,30.51,SSE,150,2.0,3.0,49,0.00,,---,0.00,VWS V14.01,2013-01-10 22:50:00,
2013-01-10 17:55:00,48.7,30.4,30.51,SSE,150,3.0,3.0,49,0.00,,---,0.00,VWS V14.01,2013-01-10 22:55:00,
2013-01-10 18:00:00,48.5,30.7,30.51,SSE,150,3.0,3.0,50,0.00,,---,0.00,VWS V14.01,2013-01-10 23:00:00,
2013-01-10 18:05:00,48.3,30.5,30.51,SSE,150,2.0,3.0,50,0.00,,---,0.00,VWS V14.01,2013-01-10 23:05:00,
2013-01-10 18:10:00,48.2,29.5,30.51,SSE,150,2.0,3.0,48,0.00,,---,0.00,VWS V14.01,2013-01-10 23:10:00,
2013-01-10 18:15:00,48.0,31.2,30.51,SSE,150,2.0,3.0,52,0.00,,---,0.00,VWS V14.01,2013-01-10 23:15:00,
2013-01-10 18:20:00,47.9,31.6,30.51,SSE,150,2.0,3.0,53,0.00,,---,0.00,VWS V14.01,2013-01-10 23:20:00,
2013-01-10 18:25:00,47.7,30.5,30.51,SSE,150,3.0,3.0,51,0.00,,---,0.00,VWS V14.01,2013-01-10 23:25:00,
2013-01-10 18:30:00,47.6,30.4,30.51,West,259,3.0,4.0,51,0.00,,---,0.00,VWS V14.01,2013-01-10 23:30:00,
2013-01-10 18:35:00,47.4,30.2,30.52,West,259,2.0,3.0,51,0.00,,---,0.00,VWS V14.01,2013-01-10 23:35:00,
2013-01-10 18:40:00,47.4,31.1,30.52,West,259,1.0,2.0,53,0.00,,---,0.00,VWS V14.01,2013-01-10 23:40:00,
2013-01-10 18:45:00,47.3,30.6,30.52,West,259,1.0,1.0,52,0.00,,---,0.00,VWS V14.01,2013-01-10 23:45:00,
2013-01-10 18:50:00,47.1,30.4,30.52,West,259,1.0,2.0,52,0.00,,---,0.00,VWS V14.01,2013-01-10 23:50:00,
2013-01-10 18:55:00,47.0,28.9,30.52,West,259,0.0,0.0,49,0.00,,---,0.00,VWS V14.01,2013-01-10 23:55:00,
2013-01-10 19:00:00,47.0,29.3,30.52,West,259,1.0,1.0,50,0.00,,---,0.00,VWS V14.01,2013-01-11 00:00:00,
2013-01-10 19:05:00,47.0,29.3,30.51,West,259,2.0,2.0,50,0.00,,---,0.00,VWS V14.01,2013-01-11 00:05:00,
2013-01-10 19:10:00,47.0,30.3,30.51,West,259,3.0,3.0,52,0.00,,---,0.00,VWS V14.01,2013-01-11 00:10:00,
2013-01-10 19:15:00,46.8,30.1,30.51,West,259,3.0,4.0,52,0.00,,---,0.00,VWS V14.01,2013-01-11 00:15:00,
2013-01-10 19:20:00,46.7,29.5,30.51,West,259,3.0,3.0,51,0.00,,---,0.00,VWS V14.01,2013-01-11 00:20:00,
2013-01-10 19:25:00,46.7,30.0,30.51,West,259,1.0,3.0,52,0.00,,---,0.00,VWS V14.01,2013-01-11 00:25:00,
2013-01-10 19:30:00,46.5,29.8,30.51,West,259,2.0,3.0,52,0.00,,---,0.00,VWS V14.01,2013-01-11 00:30:00,
2013-01-10 19:35:00,46.5,29.4,30.51,West,259,1.0,2.0,51,0.00,,---,0.00,VWS V14.01,2013-01-11 00:35:00,
2013-01-10 19:40:00,46.5,30.3,30.51,West,259,2.0,3.0,53,0.00,,---,0.00,VWS V14.01,2013-01-11 00:40:00,
2013-01-10 19:45:00,46.4,29.8,30.51,West,259,2.0,2.0,52,0.00,,---,0.00,VWS V14.01,2013-01-11 00:45:00,
2013-01-10 19:50:00,46.2,29.1,30.51,West,259,1.0,2.0,51,0.00,,---,0.00,VWS V14.01,2013-01-11 00:50:00,
2013-01-10 19:55:00,46.4,29.3,30.51,West,259,2.0,3.0,51,0.00,,---,0.00,VWS V14.01,2013-01-11 00:55:00,
2013-01-10 20:00:00,46.2,29.6,30.51,West,259,3.0,3.0,52,0.00,,---,0.00,VWS V14.01,2013-01-11 01:00:00,
2013-01-10 20:05:00,46.1,28.5,30.51,West,259,2.0,3.0,50,0.00,,---,0.00,VWS V14.01,2013-01-11 01:05:00,
2013-01-10 20:10:00,46.1,29.5,30.51,West,259,3.0,3.0,52,0.00,,---,0.00,VWS V14.01,2013-01-11 01:10:00,
2013-01-10 20:15:00,45.9,29.3,30.51,West,259,2.0,3.0,52,0.00,,---,0.00,VWS V14.01,2013-01-11 01:15:00,
2013-01-10 20:20:00,45.8,29.7,30.50,West,259,3.0,3.0,53,0.00,,---,0.00,VWS V14.01,2013-01-11 01:20:00,
2013-01-10 20:25:00,45.5,29.4,30.50,West,259,2.0,3.0,53,0.00,,---,0.00,VWS V14.01,2013-01-11 01:25:00,
2013-01-10 20:30:00,45.5,29.4,30.50,West,259,3.0,4.0,53,0.00,,---,0.00,VWS V14.01,2013-01-11 01:30:00,
2013-01-10 20:35:00,45.3,29.2,30.51,West,259,2.0,3.0,53,0.00,,---,0.00,VWS V14.01,2013-01-11 01:35:00,
2013-01-10 20:40:00,45.2,29.6,30.51,West,260,2.0,3.0,54,0.00,,---,0.00,VWS V14.01,2013-01-11 01:40:00,
2013-01-10 20:45:00,44.9,28.8,30.51,West,260,2.0,3.0,53,0.00,,---,0.00,VWS V14.01,2013-01-11 01:45:00,
2013-01-10 20:50:00,44.8,29.6,30.50,West,260,3.0,4.0,55,0.00,,---,0.00,VWS V14.01,2013-01-11 01:50:00,
2013-01-10 20:55:00,44.6,29.0,30.50,West,260,2.0,3.0,54,0.00,,---,0.00,VWS V14.01,2013-01-11 01:55:00,
2013-01-10 21:00:00,44.6,28.5,30.50,West,260,2.0,3.0,53,0.00,,---,0.00,VWS V14.01,2013-01-11 02:00:00,
2013-01-10 21:05:00,44.5,29.4,30.50,West,271,1.0,3.0,55,0.00,,---,0.00,VWS V14.01,2013-01-11 02:05:00,
2013-01-10 21:10:00,44.3,28.3,30.50,West,271,0.0,2.0,53,0.00,,---,0.00,VWS V14.01,2013-01-11 02:10:00,
2013-01-10 21:15:00,44.6,27.6,30.50,WNW,290,0.0,1.0,51,0.00,,---,0.00,VWS V14.01,2013-01-11 02:15:00,
2013-01-10 21:20:00,44.9,28.4,30.49,WNW,290,1.0,3.0,52,0.00,,---,0.00,VWS V14.01,2013-01-11 02:20:00,
2013-01-10 21:25:00,45.1,28.1,30.49,WNW,300,3.0,4.0,51,0.00,,---,0.00,VWS V14.01,2013-01-11 02:25:00,
2013-01-10 21:30:00,45.3,27.3,30.49,North,5,0.0,3.0,49,0.00,,---,0.00,VWS V14.01,2013-01-11 02:30:00,
2013-01-10 21:35:00,45.6,28.5,30.50,North,5,2.0,3.0,51,0.00,,---,0.00,VWS V14.01,2013-01-11 02:35:00,
2013-01-10 21:40:00,45.6,27.6,30.50,North,5,2.0,3.0,49,0.00,,---,0.00,VWS V14.01,2013-01-11 02:40:00,
2013-01-10 21:45:00,45.9,27.3,30.50,North,5,2.0,3.0,48,0.00,,---,0.00,VWS V14.01,2013-01-11 02:45:00,
2013-01-10 21:50:00,46.1,28.0,30.50,North,5,3.0,4.0,49,0.00,,---,0.00,VWS V14.01,2013-01-11 02:50:00,
2013-01-10 21:55:00,45.9,27.8,30.50,North,5,1.0,5.0,49,0.00,,---,0.00,VWS V14.01,2013-01-11 02:55:00,
2013-01-10 22:00:00,45.8,28.2,30.50,North,5,2.0,3.0,50,0.00,,---,0.00,VWS V14.01,2013-01-11 03:00:00,
2013-01-10 22:05:00,45.6,28.0,30.50,NNE,12,2.0,3.0,50,0.00,,---,0.00,VWS V14.01,2013-01-11 03:05:00,
2013-01-10 22:10:00,45.3,27.8,30.50,NNE,12,2.0,3.0,50,0.00,,---,0.00,VWS V14.01,2013-01-11 03:10:00,
2013-01-10 22:15:00,45.1,28.1,30.50,North,5,2.0,3.0,51,0.00,,---,0.00,VWS V14.01,2013-01-11 03:15:00,
2013-01-10 22:20:00,44.9,27.4,30.49,North,5,1.0,3.0,50,0.00,,---,0.00,VWS V14.01,2013-01-11 03:20:00,
2013-01-10 22:25:00,44.8,27.8,30.49,North,355,3.0,5.0,51,0.00,,---,0.00,VWS V14.01,2013-01-11 03:25:00,
2013-01-10 22:30:00,44.6,29.0,30.49,North,355,0.0,1.0,54,0.00,,---,0.00,VWS V14.01,2013-01-11 03:30:00,
2013-01-10 22:35:00,44.5,28.5,30.49,North,355,0.0,0.0,53,0.00,,---,0.00,VWS V14.01,2013-01-11 03:35:00,
2013-01-10 22:40:00,44.3,29.2,30.49,North,355,3.0,3.0,55,0.00,,---,0.00,VWS V14.01,2013-01-11 03:40:00,
2013-01-10 22:45:00,44.0,28.4,30.49,North,355,2.0,2.0,54,0.00,,---,0.00,VWS V14.01,2013-01-11 03:45:00,
2013-01-10 22:50:00,43.7,28.6,30.48,North,355,2.0,3.0,55,0.00,,---,0.00,VWS V14.01,2013-01-11 03:50:00,
2013-01-10 22:55:00,43.6,29.0,30.48,North,355,0.0,2.0,56,0.00,,---,0.00,VWS V14.01,2013-01-11 03:55:00,
2013-01-10 23:00:00,43.4,28.3,30.48,North,355,0.0,1.0,55,0.00,,---,0.00,VWS V14.01,2013-01-11 04:00:00,
2013-01-10 23:05:00,43.4,28.3,30.48,North,355,3.0,3.0,55,0.00,,---,0.00,VWS V14.01,2013-01-11 04:05:00,
2013-01-10 23:10:00,43.3,28.2,30.48,North,355,2.0,3.0,55,0.00,,---,0.00,VWS V14.01,2013-01-11 04:10:00,
2013-01-10 23:15:00,43.3,28.7,30.48,North,355,3.0,3.0,56,0.00,,---,0.00,VWS V14.01,2013-01-11 04:15:00,
2013-01-10 23:20:00,43.2,28.1,30.48,North,355,3.0,3.0,55,0.00,,---,0.00,VWS V14.01,2013-01-11 04:20:00,
2013-01-10 23:25:00,43.2,27.2,30.48,North,355,2.0,3.0,53,0.00,,---,0.00,VWS V14.01,2013-01-11 04:25:00,
2013-01-10 23:30:00,43.2,28.6,30.48,North,355,2.0,3.0,56,0.00,,---,0.00,VWS V14.01,2013-01-11 04:30:00,
2013-01-10 23:35:00,42.9,27.4,30.48,North,355,2.0,3.0,54,0.00,,---,0.00,VWS V14.01,2013-01-11 04:35:00,
2013-01-10 23:40:00,42.9,27.9,30.48,North,355,2.0,3.0,55,0.00,,---,0.00,VWS V14.01,2013-01-11 04:40:00,
2013-01-10 23:45:00,42.7,27.2,30.48,North,355,2.0,3.0,54,0.00,,---,0.00,VWS V14.01,2013-01-11 04:45:00,
2013-01-10 23:50:00,42.7,27.7,30.48,North,355,2.0,2.0,55,0.00,,---,0.00,VWS V14.01,2013-01-11 04:50:00,
2013-01-10 23:55:00,42.6,26.7,30.48,North,355,2.0,2.0,53,0.00,,---,0.00,VWS V14.01,2013-01-11 04:55:00,